EW9240 Weather Reports


Display with metric or nautical units.
time (UTC)temp
F
wind
direction
speed
MPH
gust
MPH
rain 1hr
in
rain 24hr
in
rain mn
in
humidity
%
barometer
mb
20260903133105 53 127 0.0 2.0 0.00 0.44 0.01 90 1007.8
20260903131535 53 116 0.0 3.0 0.00 0.44 0.01 90 1007.9
20260903130026 53 134 1.0 3.0 0.00 0.44 0.01 90 1007.8
20260903124502 53 115 1.0 4.0 0.00 0.44 0.01 90 1007.8
20260903123053 53 141 0.0 3.0 0.00 0.44 0.01 90 1007.9
20260903121529 53 125 0.0 3.0 0.00 0.44 0.01 89 1007.9
20260903120054 53 119 0.0 3.0 0.00 0.44 0.01 89 1008.2
20260903114523 54 116 0.0 1.0 0.00 0.44 0.01 88 1008.1
20260903113104 54 133 0.0 2.0 0.00 0.44 0.01 87 1008.0
20260903111547 55 115 0.0 1.0 0.00 0.44 0.01 87 1008.1
20260903110033 55 148 0.0 5.0 0.00 0.44 0.01 86 1007.9
20260903104516 55 220 1.0 4.0 0.00 0.44 0.01 86 1007.9
20260903103002 55 216 0.0 3.0 0.00 0.44 0.01 87 1007.9
20260903101530 55 192 1.0 7.0 0.00 0.44 0.01 88 1007.9
20260903100014 55 133 0.0 2.0 0.01 0.44 0.01 90 1007.7
20260903094606 55 136 0.0 5.0 0.01 0.44 0.01 90 1007.7
20260903093042 55 126 0.0 3.0 0.01 0.44 0.01 90 1007.8
20260903091518 55 124 0.0 5.0 0.01 0.44 0.01 89 1007.9
20260903090005 55 126 0.0 2.0 0.00 0.43 0.00 89 1007.9
20260903084553 55 211 0.0 1.0 0.00 0.43 0.00 89 1008.0
20260903083028 55 207 0.0 1.0 0.00 0.43 0.00 89 1008.0
20260903081504 56 208 0.0 2.0 0.00 0.43 0.00 89 1008.0
20260903080106 56 215 0.0 7.0 0.00 0.43 0.00 88 1008.1
20260903074526 56 203 0.0 5.0 0.00 0.43 0.00 87 1008.1
20260903073024 56 209 2.0 6.0 0.00 0.43 0.00 87 1007.9
20260903071554 56 194 2.0 5.0 0.00 0.43 0.00 88 1007.9
20260903070030 56 219 1.0 5.0 0.00 0.43 0.00 89 1007.8
20260903064515 56 193 2.0 9.0 0.00 0.43 0.43 88 1007.9
20260903063101 57 203 4.0 11.0 0.00 0.43 0.43 86 1007.9
20260903061551 57 242 1.0 4.0 0.00 0.43 0.43 86 1007.7
20260903060029 56 177 0.0 4.0 0.00 0.43 0.43 87 1007.7
20260903054511 57 213 1.0 4.0 0.00 0.43 0.43 87 1007.7
20260903053104 56 171 1.0 4.0 0.00 0.43 0.43 88 1007.9
20260903051537 56 212 0.0 4.0 0.00 0.43 0.43 89 1007.9
20260903050029 56 210 0.0 4.0 0.00 0.43 0.43 89 1007.7
20260903044505 57 205 1.0 4.0 0.00 0.43 0.43 88 1007.6
20260903043049 57 209 0.0 7.0 0.00 0.43 0.43 89 1007.5
20260903041540 57 134 0.0 4.0 0.00 0.43 0.43 91 1007.3
20260903040013 57 162 0.0 2.0 0.00 0.43 0.43 91 1007.3
20260903034606 57 217 0.0 1.0 0.00 0.43 0.43 91 1007.0
20260903033048 57 195 0.0 5.0 0.00 0.43 0.43 92 1006.9
20260903031539 57 138 0.0 5.0 0.00 0.43 0.43 92 1006.8
20260903030021 57 117 0.0 4.0 0.00 0.43 0.43 92 1006.6
20260903024603 58 152 0.0 6.0 0.00 0.43 0.43 92 1006.4
20260903023048 58 219 0.0 3.0 0.00 0.43 0.43 92 1006.4
20260903021528 58 210 0.0 3.0 0.00 0.43 0.43 93 1006.2
20260903020036 58 213 0.0 4.0 0.00 0.43 0.43 93 1006.1
20260903014524 58 222 0.0 4.0 0.00 0.43 0.43 93 1006.0
20260903013105 58 208 0.0 3.0 0.00 0.43 0.43 93 1005.9
20260903011557 58 216 1.0 7.0 0.00 0.43 0.43 93 1005.8
20260903010027 58 209 0.0 4.0 0.02 0.43 0.43 94 1005.7
20260903004608 57 222 2.0 9.0 0.07 0.43 0.43 93 1005.5
20260903003055 58 220 0.0 5.0 0.10 0.43 0.43 94 1005.5
20260903001526 58 212 0.0 2.0 0.10 0.43 0.43 93 1005.4
20260903000011 58 212 0.0 4.0 0.08 0.41 0.41 92 1005.4
20260902234600 59 183 1.0 5.0 0.02 0.35 0.35 92 1005.4
20260902233032 59 202 3.0 6.0 0.00 0.33 0.33 90 1005.1
20260902231519 59 211 1.0 5.0 0.00 0.33 0.33 89 1005.1
20260902230053 60 229 0.0 5.0 0.00 0.33 0.33 88 1004.9
20260902224539 60 213 0.0 3.0 0.00 0.33 0.33 89 1004.9
20260902223015 59 108 1.0 5.0 0.01 0.33 0.33 90 1004.9
20260902221559 59 122 1.0 5.0 0.02 0.33 0.33 90 1004.9
20260902220053 59 124 0.0 3.0 0.02 0.33 0.33 91 1004.7
20260902214537 59 137 0.0 3.0 0.03 0.33 0.33 92 1004.9
20260902213028 59 110 0.0 1.0 0.04 0.32 0.32 93 1004.9
20260902211548 59 70 0.0 2.0 0.09 0.31 0.31 92 1004.8
20260902210029 59 129 0.0 2.0 0.15 0.31 0.31 92 1004.9
20260902204501 59 127 0.0 2.0 0.20 0.30 0.30 91 1004.6
20260902203059 59 126 0.0 1.0 0.20 0.28 0.28 92 1004.5
20260902201533 59 78 0.0 2.0 0.16 0.22 0.22 91 1004.4
20260902200016 59 129 0.0 2.0 0.10 0.15 0.15 90 1004.7
20260902194557 59 137 0.0 3.0 0.07 0.11 0.11 90 1004.7
20260902193042 59 133 0.0 1.0 0.05 0.08 0.08 89 1004.8
20260902191538 60 129 0.0 3.0 0.05 0.06 0.06 88 1004.9
20260902190016 60 127 0.0 2.0 0.05 0.05 0.05 86 1005.0
20260902184600 60 134 0.0 0.0 0.04 0.04 0.04 86 1005.3
20260902183028 60 159 0.0 0.0 0.03 0.03 0.03 84 1005.5
20260902181513 62 215 0.0 1.0 0.01 0.01 0.01 82 1005.6
20260902180051 63 172 0.0 0.0 0.00 0.00 0.00 81 1005.4
20260902174534 64 141 0.0 0.0 0.00 0.00 0.00 79 1005.1
20260902173020 64 141 0.0 0.0 0.00 0.00 0.00 77 1004.9
20260902171538 64 51 0.0 2.0 0.00 0.00 0.00 74 1004.8
20260902170019 64 136 0.0 2.0 0.00 0.00 0.00 72 1004.8
20260902164550 64 133 0.0 3.0 0.00 0.00 0.00 72 1004.7
20260902163041 64 141 0.0 3.0 0.00 0.00 0.00 73 1004.7
20260902161513 63 136 0.0 2.0 0.00 0.00 0.00 73 1004.8
20260902154541 62 130 0.0 2.0 0.00 0.00 0.00 74 1005.0
20260902153027 62 151 0.0 3.0 0.00 0.00 0.00 75 1005.2
20260902151557 62 127 0.0 2.0 0.00 0.00 0.00 75 1005.3
20260902150027 61 129 0.0 3.0 0.00 0.00 0.00 75 1005.4
20260902144605 61 129 0.0 1.0 0.00 0.00 0.00 76 1005.6
20260902143050 61 134 0.0 2.0 0.00 0.00 0.00 76 1005.8
20260902141525 61 135 0.0 1.0 0.00 0.00 0.00 77 1006.0
20260902140009 60 138 0.0 0.0 0.00 0.00 0.00 77 1006.2
20260902134600 60 53 0.0 2.0 0.00 0.00 0.00 77 1006.4